Dewpoint
60 59 59 59 59 59 58 58 56 52 51 52 53 55 55 55 54 54 54 53 53 52 51 51 51 52 52 52 53 53 54 55 57 59 60 60 61 61
60 59 59 59 59 58 58 57 56 54 52 54 52 52 52 52 53 52 51 50 50 49 48 50 50 49 49 49 50 50 51 53 55 57 58 59 59 61
56 58 54 54 53 52 52 51 50 51 51 50 51 50 48 48 47 47 47 47 47 47 47 47 47 48 49 49 49 50 50 50 52 54 56 57 58 60
48 49 48 47 47 48 47 46 45 45 47 45 46 45 45 43 42 41 43 43 42 45 44 42 42 42 44 47 48 49 49 48 49 50 52 54 55 56
44 44 44 44 44 44 44 42 43 43 43 42 41 41 41 38 38 39 38 39 41 42 41 41 40 42 44 43 44 45 47 46 47 48 50 51 54 57
42 41 41 41 41 40 38 38 37 38 37 37 36 36 36 36 36 35 34 36 37 37 38 39 41 41 42 43 43 44 45 45 46 47 48 50 52 55
39 39 40 40 40 38 36 35 35 34 34 34 33 34 34 33 32 34 33 34 34 35 35 36 37 38 39 40 40 42 44 44 45 46 47 48 50 53
33 35 35 34 35 36 35 34 34 33 32 31 31 31 31 32 32 32 32 31 31 35 34 35 37 36 37 37 40 42 43 43 44 45 46 47 48 51
32 33 33 33 33 32 33 33 32 32 31 31 30 29 30 31 31 31 32 34 34 35 35 34 35 34 36 37 40 42 42 42 42 43 44 45 46 48
30 29 31 31 33 32 31 30 30 29 30 30 30 31 31 32 33 34 35 34 34 34 34 32 33 32 35 37 40 40 41 41 41 41 42 42 45 47
27 29 30 30 33 33 30 29 29 28 30 31 32 32 31 31 32 34 33 32 30 31 33 34 34 34 34 35 35 38 38 39 39 40 44 46 45 48
27 26 31 31 33 33 30 28 27 27 28 28 27 28 30 30 30 31 31 30 30 30 33 33 33 33 32 34 34 35 34 37 38 40 43 45 41 38
28 28 28 32 33 32 31 28 28 29 27 27 26 26 27 29 29 28 30 31 30 30 33 34 32 32 32 32 33 33 32 34 33 36 38 40 39 37
29 29 29 32 32 31 29 29 30 29 26 25 26 26 26 26 27 29 31 32 33 33 34 33 30 31 30 30 31 33 30 32 32 33 33 35 36 36
30 30 31 31 32 29 28 28 28 26 25 25 25 25 27 26 27 29 31 32 33 33 33 33 31 31 30 29 30 31 32 28 32 32 31 31 31 29
29 29 31 30 29 28 26 26 26 25 24 25 26 26 24 24 26 27 28 30 31 30 29 28 30 29 29 29 29 29 28 26 24 26 28 28 30 31
29 29 27 26 25 25 25 24 25 24 24 27 24 24 23 23 24 24 26 29 29 29 28 29 30 28 30 29 26 23 23 22 22 26 26 26 27 28
29 27 26 26 24 24 24 24 24 24 26 25 24 24 23 23 23 24 23 24 27 27 28 28 24 21 22 25 31 27 21 21 25 29 29 23 23 28
29 27 26 26 24 24 23 22 24 25 26 24 20 23 24 24 22 21 22 23 25 26 28 28 23 20 16 15 24 29 27 22 26 28 28 26 24 28
27 26 26 26 25 22 24 25 25 24 24 22 17 15 18 21 21 20 21 22 23 25 28 28 25 22 19 19 23 24 30 24 25 26 28 29 30 31
26 25 26 26 25 26 26 25 25 24 24 16 10 12 17 21 20 20 21 24 25 23 25 26 28 32 24 23 20 23 28 30 28 24 27 27 27 27
26 26 26 27 26 26 25 25 24 21 16 15 15 16 19 20 20 20 21 21 22 23 25 28 29 26 22 22 20 23 27 29 31 31 33 31 27 24
26 27 27 27 27 26 26 25 21 20 19 18 18 17 16 18 20 21 21 22 23 23 25 25 26 24 24 23 23 25 27 26 28 30 31 33 32 34
Lifted_Index
-1 -1 -1 -1 -0 0 0 0 0 1 1 1 1 2 2 2 2 2 2 3 3 2 2 3 4 5 6 7 8 9 8 7 6 5 4 3 2 2
-1 -1 -1 -0 0 0 0 0 1 1 1 1 1 1 2 2 2 2 2 3 3 4 5 6 7 8 9 10 11 10 10 9 7 6 5 4 3 3
-0 -0 -0 0 1 1 1 1 1 1 2 2 2 2 2 2 3 4 5 6 7 9 10 11 12 13 13 13 12 12 12 11 10 8 7 6 4 4
1 1 1 1 2 2 2 2 2 2 2 2 2 3 4 6 7 9 11 12 13 14 15 16 16 16 15 14 14 13 13 13 12 11 10 8 6 5
2 2 2 3 3 3 3 4 4 5 5 5 6 7 9 11 12 14 15 16 17 17 18 18 18 17 16 16 16 15 15 15 14 13 12 10 8 7
4 4 6 6 6 7 8 8 9 10 11 11 11 12 13 15 16 16 16 17 18 19 19 19 18 18 18 18 18 17 17 16 15 14 13 12 10 9
7 8 11 12 13 13 14 14 14 14 14 14 14 14 15 16 16 17 17 17 18 19 19 19 19 19 19 19 18 18 17 17 16 15 14 13 11 10
13 13 15 16 17 17 18 18 18 17 16 16 15 15 16 17 17 18 18 18 17 19 19 19 19 19 19 18 18 18 17 17 16 16 15 14 13 11
16 16 17 18 18 19 19 19 19 19 18 18 17 17 17 18 19 19 19 18 18 19 19 19 19 18 18 18 18 18 17 17 17 16 15 15 13 13
18 18 18 19 19 19 19 19 19 20 20 19 19 19 19 19 20 20 19 19 19 19 19 19 18 18 18 18 17 17 17 17 17 16 15 14 13 13
19 19 19 19 19 19 19 19 19 19 20 20 20 20 20 20 20 20 19 19 19 19 19 19 18 18 18 17 17 17 17 17 17 16 15 14 13 12
19 19 20 20 20 20 19 19 19 19 19 20 20 20 20 20 20 20 20 19 18 18 19 19 18 18 17 17 16 16 16 16 16 15 14 13 12 12
19 19 20 20 20 20 20 20 19 19 20 20 19 19 19 19 20 20 20 19 19 18 18 18 17 17 16 15 15 15 16 16 15 14 14 13 12 12
19 19 20 20 20 20 20 20 20 20 20 19 19 19 19 19 19 19 19 19 18 17 17 17 16 16 15 14 13 13 14 14 14 13 13 12 11 11
20 20 20 20 20 20 20 20 20 20 19 19 18 18 18 18 18 17 17 17 16 16 16 15 15 14 14 12 12 12 12 12 12 11 11 10 10 10
19 19 19 19 19 19 19 19 19 18 18 17 17 17 16 16 16 16 15 15 14 14 14 14 14 14 13 12 12 11 10 10 10 10 10 10 11 11
19 19 18 18 18 18 18 17 17 16 16 16 15 15 15 15 15 15 14 14 13 13 13 13 14 13 12 12 11 10 9 8 9 10 10 11 12 13
18 18 17 17 16 16 16 15 15 14 14 14 14 14 14 14 14 14 14 13 13 12 12 13 13 12 10 10 10 9 8 8 9 10 11 12 13 14
17 17 16 16 15 14 14 13 13 13 14 14 14 14 14 14 14 14 13 13 12 12 12 12 11 10 8 7 8 9 9 9 10 11 12 13 14 14
17 16 16 15 14 13 13 13 13 13 13 14 14 14 14 14 13 13 13 13 12 12 12 11 10 9 8 7 7 8 10 10 11 12 13 14 14 13
16 16 15 14 13 13 13 13 13 13 14 14 14 15 15 14 14 14 13 13 12 11 10 10 10 9 8 8 8 8 10 12 13 13 14 13 12 11
15 14 14 13 13 13 13 13 13 14 14 14 15 15 15 15 14 14 13 13 12 11 10 9 9 9 9 8 8 9 10 12 14 14 14 13 12 11
14 14 13 14 14 14 14 14 14 14 14 15 15 15 15 15 14 14 13 12 11 10 9 9 9 9 9 9 9 9 11 12 13 14 14 14 14 13